Weather in Reno

United States     39°31′47″N   119°48′48″W
temp.,
°C
wind,
m/s
gust,
m/s
humid.,
%
clouds,
%
prec.,
mm/h
press.,
hPa
HPBL,
m
16 may, sun
sun1623:00+10nw2566100 0.4 1011347
02:00+10w2379100 1.5 1010210
05:00+10wsw2280100 3.1 1010244
08:00+10wnw127844 4.0 1012227
11:00+16n344815 4.3 10101551
14:00+19nne55338 0.3 10092380
17:00+21n782536 0.3 10063111
20:00+18nw59335 0.0 1008909
17 may, mon
mon1723:00+14se255813 0.1 1012343
02:00+13w22605 0.0 101187
05:00+11wsw33620 0.0 101275
08:00+15w22460 0.0 1013287
11:00+21n24240 0.0 10112065
14:00+24n461720 0.0 10083416
17:00+23wnw1072119 0.0 10082417
20:00+18wnw57280 0.0 1011541
18 may, tue
tue1823:00+14wsw34465 0.0 1014115
02:00+12wsw23500 0.0 101486
05:00+11w22500 0.0 101463
08:00+14w12420 0.0 1014342
11:00+20nnw05240 0.0 10112032
14:00+24wsw87193 0.0 10082712
17:00+21wsw89240 0.0 10091839
20:00+16wsw343344 0.0 1010650
19 may, wed
wed1923:00+13wsw33420 0.0 1011170
02:00+11wsw22450 0.0 1010108
05:00+10wsw22430 0.0 100979
08:00+13wsw242377 0.0 1008647
11:00+17wsw59220 0.0 10052010
14:00+18sw911200 0.0 10042146
17:00+16wsw811200 0.0 10051865
20:00+10w58290 0.0 10071206
20 may, thu
thu2023:00+8w23380 0.0 1009370
02:00+6w11450 0.0 1007145
05:00+4w23430 0.0 1007176
08:00+5w59240 0.0 10081214
11:00+7wsw1092877 0.0 10072790
14:00+8w9824100 0.1 10063034
17:00+5wnw71049100 0.7 10091702
20:00+3w71369100 0.6 10111293